Location: El Bakhil
(32.7726°N, 5.5387°W)
Time: 06:45:43
(UTC+00:00)

N. Korean satellite - Pass Details

Date: 04 December 2021
Orbit: 447 x 491 km, 97.3° (Epoch: 22 January)

Event Time Altitude Azimuth Distance (km) Brightness Sun altitude
Rises 06:25:37 0° 348° (NNW) 2,453 9.8 -9.2°
Reaches altitude 10° 06:28:24 10° 322° (NW) 1,574 8.6 -8.7°
Maximum altitude 06:30:13 14° 289° (WNW) 1,346 8.1 -8.3°
Drops below altitude 10° 06:32:02 10° 256° (WSW) 1,569 8.7 -8.0°
Sets 06:34:47 0° 230° (SW) 2,438 9.8 -7.4°
